This is the latest recevied weather packets stored in our database for station/object PA5MB-15. If no packets are shown the sender has not sent any weather packets the latest 10 day(s).
| Time | Temp. | Humidity | Pressure | Rain* | Wind** | Luminosity | Snow |
|---|---|---|---|---|---|---|---|
| 1778069730 | 14.44° C | 64% | 1010.5 hPa | 0 mm | - | 26 W/m² | - |
| 1778069430 | 14.44° C | 63% | 1010.4 hPa | 0 mm | - | 39 W/m² | - |
| 1778069133 | 13.89° C | 64% | 1010.4 hPa | 0 mm | - | 53 W/m² | - |
| 1778068833 | 13.89° C | 67% | 1010.4 hPa | 0 mm | - | 28 W/m² | - |
| 1778068533 | 14.44° C | 65% | 1010.4 hPa | 0 mm | - | 20 W/m² | - |
| 1778068233 | 15° C | 59% | 1010.3 hPa | 0 mm | - | 26 W/m² | - |
| 1778067933 | 15° C | 59% | 1010.3 hPa | 0 mm | - | 39 W/m² | - |
| 1778067633 | 14.44° C | 59% | 1010.3 hPa | 0 mm | - | 34 W/m² | - |
| 1778067333 | 14.44° C | 59% | 1010.3 hPa | 0 mm | - | 35 W/m² | - |
| 1778067034 | 14.44° C | 61% | 1010.3 hPa | 0 mm | - | 30 W/m² | - |
| 1778066735 | 14.44° C | 61% | 1010.3 hPa | 0 mm | - | 20 W/m² | - |
| 1778066433 | 14.44° C | 61% | 1010.3 hPa | 0 mm | - | 14 W/m² | - |
| 1778066127 | 15° C | 58% | 1010.3 hPa | 0 mm | - | 25 W/m² | - |
| 1778065838 | 15.56° C | 56% | 1010.3 hPa | 0 mm | - | 57 W/m² | - |
| 1778065530 | 15.56° C | 58% | 1010.2 hPa | 0 mm | - | 86 W/m² | - |
| 1778065234 | 15.56° C | 59% | 1010.2 hPa | 0 mm | - | 64 W/m² | - |
| 1778064925 | 15.56° C | 60% | 1010.2 hPa | 0 mm | - | 52 W/m² | - |
| 1778064633 | 15° C | 61% | 1010.3 hPa | 0 mm | - | 65 W/m² | - |
| 1778064333 | 14.44° C | 63% | 1010.3 hPa | 0 mm | - | 51 W/m² | - |
| 1778064024 | 14.44° C | 63% | 1010.3 hPa | 0 mm | - | 50 W/m² | - |
| 1778063733 | 15° C | 62% | 1010.3 hPa | 0 mm | - | 57 W/m² | - |
| 1778063430 | 14.44° C | 63% | 1010.3 hPa | 0 mm | - | 69 W/m² | - |
| 1778063145 | 14.44° C | 64% | 1010.2 hPa | 0 mm | - | 53 W/m² | - |
| 1778062833 | 13.89° C | 65% | 1010.2 hPa | 0 mm | - | 58 W/m² | - |
| 1778062533 | 13.89° C | 67% | 1010.2 hPa | 0 mm | - | 47 W/m² | - |
* Rain latest hour (hover to see other rain measurements)
** Current wind speed in m/s (hover to see current wind gust speed)